Nashville, TN

8:31 PM CDT on September 25, 2017 (GMT -0500)
Nashville International

Weather History for KBNA - July, 2013

Change the Weather History Date:

Monday, July 15, 2013

  Actual Average Record
Temperature  
Mean Temperature 82 °F 80 °F  
Max Temperature 91 °F 89 °F 103 °F (1980)
Min Temperature 73 °F 70 °F 54 °F (1926)
Degree Days  
Heating Degree Days 0    
Month to date heating degree days 0  
Since 1 June heating degree days 0  
Since 1 July heating degree days 0  
Cooling Degree Days 17    
Month to date cooling degree days 186  
Year to date cooling degree days 763  
Since 1 June cooling degree days 556  
Growing Degree Days 32 (Base 50)    
Moisture  
Dew Point 68 °F    
Average Humidity 66    
Maximum Humidity 87    
Minimum Humidity 44    
Precipitation  
Precipitation 0.00 in 0.11 in 2.32 in (1936)
Month to date precipitation 4.92 1.84  
Year to date precipitation 33.84 27.28  
Snow  
Snow 0.00 in - 0.00 in (2002)
Month to date snowfall 0.0  
Since 1 June snowfall 0.0  
Since 1 July snowfall 0.0  
Snow Depth 0.00 in    
Sea Level Pressure  
Sea Level Pressure 30.22 in    
Wind  
Wind Speed 7 mph (SE)    
Max Wind Speed 16 mph    
Max Gust Speed 24 mph    
Visibility 10 miles    
Events      
T = Trace of Precipitation, MM = Missing Value Source: NWS Daily Summary

Daily Weather History Graph

Daily Weather History Graph

Search for Another Location

Airport or City:

Trip Planner

Search our weather history database for the weather conditions in past years. The results will help you decide how hot, cold, wet, or windy it might be!

Date:

Astronomy

Jul. 15, 2013 Rise Set
Actual Time 5:41 AM CDT 8:03 PM CDT
Civil Twilight 5:11 AM CDT 8:33 PM CDT
Nautical Twilight 4:35 AM CDT 9:09 PM CDT
Astronomical Twilight 3:55 AM CDT 9:49 PM CDT
Moon 12:45 PM CDT (7/15) No Moon Set
Length of Visible Light 15h 21m
Length of Day
14h 22m
Waxing Crescent, 45% of the Moon is Illuminated
Jul 15
Waxing Crescent
Jul 15
First Quarter
Jul 22
Full
Jul 29
Last Quarter
Aug 6
New

Hourly Weather History & Observations

Time (CDT) Temp. Heat Index Dew Point Humidity Pressure Visibility Wind Dir Wind Speed Gust Speed Precip Events Conditions
12:53 AM 75.9 °F - 70.0 °F 82% 30.17 in 10.0 mi ESE 9.2 mph - N/A   Mostly Cloudy
1:53 AM 75.0 °F - 69.1 °F 82% 30.17 in 10.0 mi ESE 6.9 mph - N/A   Mostly Cloudy
2:53 AM 75.0 °F - 69.1 °F 82% 30.17 in 10.0 mi ESE 5.8 mph - N/A   Mostly Cloudy
3:53 AM 75.0 °F - 69.1 °F 82% 30.18 in 10.0 mi ESE 5.8 mph - N/A   Partly Cloudy
4:53 AM 73.9 °F - 69.1 °F 85% 30.18 in 10.0 mi ESE 8.1 mph - N/A   Clear
5:53 AM 73.0 °F - 68.0 °F 84% 30.20 in 10.0 mi SE 3.5 mph - N/A   Scattered Clouds
6:53 AM 75.9 °F - 69.1 °F 79% 30.23 in 10.0 mi SE 5.8 mph - N/A   Scattered Clouds
7:53 AM 79.0 °F - 68.0 °F 69% 30.25 in 10.0 mi SE 9.2 mph - N/A   Scattered Clouds
8:53 AM 80.1 °F 82.3 °F 66.9 °F 64% 30.26 in 10.0 mi SSE 12.7 mph 24.2 mph N/A   Mostly Cloudy
9:53 AM 80.1 °F 82.3 °F 66.9 °F 64% 30.26 in 10.0 mi South 11.5 mph - N/A   Mostly Cloudy
10:53 AM 84.9 °F 88.2 °F 68.0 °F 57% 30.27 in 10.0 mi SSE 11.5 mph 18.4 mph N/A   Mostly Cloudy
11:53 AM 86.0 °F 88.8 °F 66.9 °F 53% 30.27 in 10.0 mi SSE 9.2 mph - N/A   Mostly Cloudy
12:53 PM 88.0 °F 90.3 °F 66.0 °F 48% 30.25 in 10.0 mi South 8.1 mph 16.1 mph N/A   Mostly Cloudy
1:53 PM 90.0 °F 91.7 °F 64.9 °F 43% 30.25 in 10.0 mi South 10.4 mph - N/A   Mostly Cloudy
2:53 PM 89.1 °F 91.3 °F 66.0 °F 46% 30.22 in 10.0 mi SE 9.2 mph - N/A   Mostly Cloudy
3:53 PM 89.1 °F 91.3 °F 66.0 °F 46% 30.20 in 10.0 mi East 10.4 mph - N/A   Mostly Cloudy
4:53 PM 90.0 °F 91.7 °F 64.9 °F 43% 30.19 in 10.0 mi East 12.7 mph - N/A   Scattered Clouds
5:53 PM 89.1 °F 91.3 °F 66.0 °F 46% 30.19 in 10.0 mi East 8.1 mph - N/A   Scattered Clouds
6:53 PM 87.1 °F 89.2 °F 66.0 °F 49% 30.19 in 10.0 mi East 5.8 mph - N/A   Scattered Clouds
7:53 PM 84.9 °F 87.6 °F 66.9 °F 55% 30.20 in 10.0 mi ESE 4.6 mph - N/A   Scattered Clouds
8:53 PM 82.0 °F 85.5 °F 69.1 °F 65% 30.22 in 10.0 mi East 4.6 mph - N/A   Scattered Clouds
9:53 PM 82.0 °F 84.9 °F 68.0 °F 62% 30.24 in 10.0 mi East 4.6 mph - N/A   Mostly Cloudy
10:53 PM 78.1 °F - 69.1 °F 74% 30.25 in 10.0 mi SE 3.5 mph - N/A   Partly Cloudy
11:53 PM 77.0 °F - 69.1 °F 76% 30.25 in 10.0 mi Calm Calm - N/A   Partly Cloudy